Weather History for Kalamazoo, MI

Change the Weather History Date:

Tuesday, May 21, 2013

  Actual Average Record
Temperature  
Mean Temperature 73 °F 60 °F  
Max Temperature 82 °F 71 °F 93 °F (1977)
Min Temperature 63 °F 49 °F 33 °F (1954)
Degree Days  
Heating Degree Days 0 6  
Month to date heating degree days 81 176  
Since 1 July heating degree days 6213 6319  
Cooling Degree Days 8 2  
Month to date cooling degree days 50 16  
Year to date cooling degree days 52 20  
Growing Degree Days 22 (Base 50)    
Moisture  
Dew Point 63 °F    
Average Humidity 72    
Maximum Humidity 93    
Minimum Humidity 51    
Precipitation  
Precipitation 0.75 in 0.13 in 1.36 in (1959)
Month to date precipitation 1.58 2.67  
Year to date precipitation 13.17 11.24  
Sea Level Pressure  
Sea Level Pressure 29.77 in    
Wind  
Wind Speed 9 mph (SSW)    
Max Wind Speed 21 mph    
Max Gust Speed 28 mph    
Visibility 8 miles    
Events Rain , Thunderstorm    
T = Trace of Precipitation, MM = Missing Value Source: NWS Daily Summary

Daily Weather History Graph

Daily Weather History Graph

Search for Another Location

Airport:

Trip Planner

Search our weather history database for the weather conditions in past years. The results will help you decide how hot, cold, wet, or windy it might be!

Date:

Astronomy

May. 21, 2013 Rise Set
Actual Time 6:15 AM EDT 9:02 PM EDT
Civil Twilight 5:42 AM EDT 9:35 PM EDT
Nautical Twilight 5:01 AM EDT 10:17 PM EDT
Astronomical Twilight 4:13 AM EDT 11:04 PM EDT
Moon 5:11 PM EDT (5/21) 3:47 AM EDT (5/21)
Length of Visible Light 15h 53m
Length of Day
14h 47m
Waxing Gibbous, 84% of the Moon is Illuminated
May 21
Waxing Gibbous
May 25
Full
May 31
Last Quarter
Jun 8
New
Jun 16
First Quarter

Hourly Weather History & Observations

Time (EDT) Temp. Heat Index Dew Point Humidity Pressure Visibility Wind Dir Wind Speed Gust Speed Precip Events Conditions
12:53 AM 73.9 °F - 64.9 °F 73% 29.79 in 10.0 mi SSE 3.5 mph - N/A   Clear
1:53 AM 73.9 °F - 64.9 °F 73% 29.78 in 10.0 mi South 8.1 mph - N/A   Clear
2:53 AM 73.9 °F - 66.0 °F 76% 29.75 in 10.0 mi South 10.4 mph - N/A   Clear
3:32 AM 71.6 °F - 57.2 °F 60% 29.79 in 10.0 mi WNW 15.0 mph 24.2 mph N/A   Overcast
3:53 AM 66.9 °F - 61.0 °F 81% 29.78 in 9.0 mi West 6.9 mph - 0.06 in Rain Light Rain
4:18 AM 66.2 °F - 62.6 °F 88% 29.88 in 3.0 mi SW 19.6 mph 23.0 mph 0.14 in Rain , Thunderstorm Light Thunderstorms and Rain
4:20 AM 66.2 °F - 62.6 °F 88% 29.86 in 1.5 mi SW 16.1 mph 24.2 mph 0.28 in Rain , Thunderstorm Thunderstorms and Rain
4:27 AM 64.4 °F - 62.6 °F 94% 29.83 in 0.8 mi WSW 4.6 mph 24.2 mph 0.51 in Rain , Thunderstorm Heavy Thunderstorms and Rain
4:29 AM 64.4 °F - 62.6 °F 94% 29.82 in 1.0 mi WSW 4.6 mph - 0.52 in Rain , Thunderstorm Heavy Thunderstorms and Rain
4:34 AM 64.4 °F - 62.6 °F 94% 29.82 in 2.0 mi Calm Calm - 0.53 in Rain , Thunderstorm Thunderstorms and Rain
4:42 AM 64.4 °F - 62.6 °F 94% 29.82 in 4.0 mi South 4.6 mph - 0.56 in Rain , Thunderstorm Heavy Thunderstorms and Rain
4:53 AM 64.0 °F - 62.1 °F 93% 29.80 in 5.0 mi SE 3.5 mph - 0.59 in Rain , Thunderstorm Thunderstorms and Rain
5:24 AM 64.4 °F - 62.6 °F 94% 29.77 in 4.0 mi ESE 5.8 mph - 0.09 in Rain Heavy Rain
5:53 AM 64.0 °F - 62.1 °F 93% 29.74 in 10.0 mi SE 4.6 mph - 0.10 in   Overcast
6:41 AM 64.4 °F - 62.6 °F 94% 29.78 in 10.0 mi South 5.8 mph - 0.00 in   Mostly Cloudy
6:53 AM 64.0 °F - 62.1 °F 93% 29.75 in 10.0 mi South 6.9 mph - 0.00 in   Mostly Cloudy
7:53 AM 64.9 °F - 63.0 °F 93% 29.76 in 10.0 mi South 10.4 mph - N/A   Mostly Cloudy
8:34 AM 66.2 °F - 64.4 °F 94% 29.79 in 10.0 mi South 12.7 mph - N/A   Scattered Clouds
8:53 AM 66.9 °F - 63.0 °F 87% 29.78 in 10.0 mi South 12.7 mph - N/A   Scattered Clouds
9:53 AM 68.0 °F - 62.1 °F 81% 29.79 in 10.0 mi SSW 11.5 mph - N/A   Mostly Cloudy
10:53 AM 70.0 °F - 63.0 °F 78% 29.78 in 10.0 mi SSW 11.5 mph - N/A   Mostly Cloudy
11:53 AM 73.9 °F - 64.0 °F 71% 29.77 in 10.0 mi South 13.8 mph - N/A   Mostly Cloudy
12:53 PM 75.9 °F - 63.0 °F 64% 29.76 in 10.0 mi South 16.1 mph 19.6 mph N/A   Mostly Cloudy
1:53 PM 75.9 °F - 62.1 °F 62% 29.75 in 10.0 mi SSW 12.7 mph 23.0 mph N/A   Mostly Cloudy
2:53 PM 78.1 °F - 63.0 °F 60% 29.75 in 10.0 mi SW 12.7 mph - N/A   Mostly Cloudy
3:53 PM 79.0 °F - 64.0 °F 60% 29.75 in 10.0 mi SW 15.0 mph 19.6 mph N/A   Scattered Clouds
4:53 PM 80.1 °F 81.5 °F 63.0 °F 56% 29.74 in 10.0 mi WSW 12.7 mph 20.7 mph N/A   Scattered Clouds
5:53 PM 81.0 °F 82.2 °F 63.0 °F 54% 29.73 in 10.0 mi SW 10.4 mph - N/A   Clear
6:53 PM 81.0 °F 81.7 °F 61.0 °F 50% 29.72 in 10.0 mi SSW 11.5 mph - N/A   Clear
7:53 PM 79.0 °F - 63.0 °F 58% 29.71 in 10.0 mi SSW 11.5 mph - N/A   Clear
8:53 PM 75.9 °F - 63.0 °F 64% 29.71 in 10.0 mi WSW 3.5 mph - N/A   Clear
9:53 PM 73.9 °F - 64.0 °F 71% 29.73 in 10.0 mi SSW 3.5 mph - N/A   Clear
10:53 PM 68.0 °F - 64.0 °F 87% 29.75 in 10.0 mi Calm Calm - N/A   Clear
11:53 PM 69.1 °F - 64.0 °F 84% 29.73 in 10.0 mi Calm Calm - N/A   Scattered Clouds